#timestamp,LO_Frequency,Hit,StdDev 
1600570815.4,286047001.6,N
1600570835.3,286047000.1,N
1600570855.1,286046999.9,N
1600570856.0,286046999.9,N
1600570875.8,286047001.7,N
1600570895.7,286047004.4,Y
1600570915.5,286047002.5,P
1600570935.4,286047004.1,P
1600570955.2,286047003.6,N
1600570975.0,286047002.9,N
1600570975.9,286047002.9,N
1600570995.8,286047001.4,N
1600571015.6,286047003.6,Y
1600571035.4,286047000.3,P
1600571055.3,286047000.7,N
1600571075.1,286046999.7,N
1600571095.9,286046999.7,N
1600571115.7,286046998.3,N
1600571135.5,286046999.3,N
1600571155.4,286046999.5,N
1600571175.2,286046999.0,N
1600571195.0,286046998.1,N
1600571195.9,286046998.1,N
1600571215.8,286046998.3,N
1600571235.6,286046998.3,N
1600571255.5,286046999.2,N
1600571275.3,286046998.9,N
1600571295.1,286047000.8,N
1600571315.9,286046998.9,N
1600571335.7,286046999.5,N
1600571355.5,286046999.1,N
1600571375.4,286046998.1,N
1600571395.2,286046999.9,N
1600571415.1,286047002.7,N
1600571416.0,286047002.7,N
1600571435.8,286046998.4,N
1600571455.6,286046998.3,N
1600571475.5,286046998.4,N
1600571495.3,286047000.5,N
1600571515.2,286047000.6,N
1600571535.9,286047000.5,N
1600571555.7,286047002.6,N
1600571575.6,286047000.4,N
1600571595.4,286046998.8,N
1600571615.2,286047000.7,N
1600571635.1,286046996.6,N
1600571636.0,286046996.6,N
1600571655.8,286047001.2,N
1600571675.7,286046998.5,N
1600571695.5,286047000.2,N
1600571715.3,286046998.6,N
1600571735.2,286046998.9,N
1600571755.0,286047000.7,N
1600571755.9,286047000.7,N
1600571775.7,286047004.0,N
1600571795.6,286047001.5,N
1600571815.4,286047002.1,N
1600571835.3,286047002.0,N
1600571855.1,286047000.2,N
1600571875.8,286047000.5,N
1600571895.7,286046999.7,N
1600571915.5,286047002.7,N
1600571935.4,286047001.1,N
1600571955.2,286046998.7,N
1600571975.0,286047000.5,N
1600571975.9,286047000.5,N
1600571995.8,286046998.5,N
1600572015.6,286047000.7,N
1600572035.4,286047003.7,N
1600572055.3,286047002.1,N
1600572075.1,286046999.8,N
1600572095.9,286047002.1,N
1600572115.7,286047001.8,N
1600572135.5,286047003.9,N
1600572155.4,286047002.3,N
1600572175.2,286047000.0,N
1600572195.1,286047002.2,N
1600572196.0,286047002.2,N
1600572215.8,286047002.2,N
1600572235.6,286046999.0,N
1600572255.5,286046998.7,N
1600572275.3,286047001.0,N
1600572295.2,286047000.8,N
1600572315.9,286046999.1,N
1600572335.7,286046998.3,N
1600572355.6,286047000.4,N
1600572375.4,286047002.7,N
1600572395.2,286047001.2,N
1600572415.1,286047002.2,N
1600572416.0,286047002.2,N
1600572435.8,286047000.5,N
1600572455.7,286047001.8,N
1600572475.5,286047004.0,N
1600572495.3,286047003.8,N
1600572515.2,286047005.5,Y
1600572535.0,286047002.0,P
1600572535.9,286047002.0,P
1600572555.7,286047000.3,N
1600572575.6,286046998.3,N
1600572595.4,286047000.5,N
1600572615.3,286046999.4,N
1600572635.1,286047000.8,N
1600572636.0,286047000.8,N
1600572655.8,286047000.8,N
1600572675.7,286046996.5,Y
1600572695.5,286046998.9,P
1600572715.3,286046999.5,N
1600572735.2,286046996.8,P
1600572755.0,286046999.0,N
1600572755.9,286046999.0,N
1600572775.8,286046999.6,N
1600572795.6,286046998.1,N
1600572815.4,286047001.2,N
1600572835.3,286046998.3,N
1600572855.1,286046998.4,N
1600572875.8,286046997.3,N
1600572895.7,286046994.9,Y
1600572915.5,286046997.0,P
1600572935.4,286046996.9,P
1600572955.2,286046998.2,N
1600572975.0,286046999.8,N
1600572975.9,286046999.8,N
1600572995.8,286047002.6,N
1600573015.6,286047000.6,N
1600573035.5,286046998.1,N
1600573055.3,286047001.2,N
1600573075.1,286047002.8,N
1600573095.9,286047002.7,N
1600573115.7,286047004.4,N
1600573135.5,286047003.8,N
1600573155.4,286047004.4,N
1600573175.2,286047000.4,N
1600573195.0,286047000.4,N
1600573196.0,286047000.4,N
1600573215.3,286046998.6,N
1600573235.2,286046998.1,N
1600573255.0,286046999.3,N
1600573255.9,286046999.3,N
1600573275.7,286046998.0,N
1600573295.6,286046995.7,N
1600573315.4,286046995.0,N
1600573335.3,286046994.9,N
1600573355.1,286046996.6,N
1600573356.0,286046996.6,N
1600573375.8,286046998.4,N
1600573395.7,286046999.6,N
1600573415.5,286046997.1,N
1600573435.3,286046997.3,N
1600573455.2,286046995.5,N
1600573475.0,286046995.3,N
1600573475.9,286046995.3,N
1600573495.8,286046997.6,N
1600573515.6,286046999.2,N
1600573535.4,286046999.0,N
1600573555.3,286046997.4,N
1600573575.1,286046997.2,N
1600573595.9,286046997.1,N
1600573615.7,286046996.5,N
1600573635.5,286046999.1,N
1600573655.4,286046997.7,N
1600573675.2,286046997.2,N
1600573695.1,286046998.7,N
1600573696.0,286046998.7,N
1600573715.8,286046999.6,N
1600573735.6,286046997.7,N
1600573755.5,286046999.0,N
1600573775.3,286046997.0,N
1600573795.2,286047000.6,N
1600573815.9,286046998.2,N
1600573835.7,286046998.8,N
1600573855.6,286046999.2,N
1600573875.4,286046995.1,Y
1600573895.2,286047000.6,P
1600573915.1,286046999.7,N
1600573916.0,286046999.7,N
1600573935.8,286047000.8,N
1600573955.7,286046999.9,N
1600573975.5,286047001.2,N
1600573995.3,286047000.9,N
1600574015.2,286047001.1,N
1600574035.0,286046998.5,N
1600574035.9,286046998.5,N
1600574055.7,286046998.1,N
1600574075.6,286046999.4,N
1600574095.4,286046999.1,N
1600574115.3,286046999.2,N
1600574135.1,286046999.1,N
1600574136.0,286046999.1,N
1600574155.8,286046999.4,N
1600574175.7,286046998.8,N
1600574195.5,286046998.9,N
1600574215.3,286046999.0,N
1600574235.2,286047001.1,N
1600574255.0,286046998.3,N
1600574255.9,286046998.3,N
1600574275.8,286046998.2,N
1600574295.6,286046998.2,N
1600574315.5,286046996.9,Y
1600574335.3,286047000.3,P
1600574355.1,286047000.4,N
1600574375.9,286046999.8,N
1600574395.7,286047002.3,Y
